owner,sensor,date,latitude,longitude,vertical_datum,wind_speed,wind_to_direction,wind_speed_of_gust,qcFlag 
TABS,ioos:station:wmo:42043:1,2003-08-01T00:09:00Z,28.9818,-94.9186,4.0,5.37837336,176.8026602,7.99,'11111222,11111222,11111222' 
TABS,ioos:station:wmo:42043:1,2003-08-01T00:39:00Z,28.9818,-94.9186,4.0,5.705611273,172.7506552,8.49,'11111222,11111222,11111222' 
TABS,ioos:station:wmo:42043:1,2003-08-01T01:09:00Z,28.9818,-94.9186,4.0,6.102606001,174.0747613,8.97,'11111222,11111222,11111222' 
TABS,ioos:station:wmo:42043:1,2003-08-01T01:39:00Z,28.9818,-94.9186,4.0,5.838946823,175.3832617,8.14,'11111222,11111222,11111222' 
TABS,ioos:station:wmo:42043:1,2003-08-01T02:09:00Z,28.9818,-94.9186,4.0,5.572073223,172.1609655,8.0,'11111222,11111222,11111222' 
TABS,ioos:station:wmo:42043:1,2003-08-01T02:39:00Z,28.9818,-94.9186,4.0,6.158002923,163.6842182,9.17,'11111222,11111222,11111222' 
TABS,ioos:station:wmo:42043:1,2003-08-01T03:09:00Z,28.9818,-94.9186,4.0,6.335368971,165.3717612,9.35,'11111222,11111222,11111222' 
TABS,ioos:station:wmo:42043:1,2003-08-01T03:39:00Z,28.9818,-94.9186,4.0,6.671986211,169.0271356,9.9,'11111222,11111222,11111222' 
TABS,ioos:station:wmo:42043:1,2003-08-01T04:09:00Z,28.9818,-94.9186,4.0,6.821297531,171.1455059,10.01,'11111222,11111222,11111222' 
TABS,ioos:station:wmo:42043:1,2003-08-01T04:39:00Z,28.9818,-94.9186,4.0,6.925676862,167.0676323,10.45,'11111222,11111222,11111222' 
TABS,ioos:station:wmo:42043:1,2003-08-01T05:09:00Z,28.9818,-94.9186,4.0,6.811057187,166.7597215,10.52,'11111222,11111222,11111222' 
TABS,ioos:station:wmo:42043:1,2003-08-01T05:39:00Z,28.9818,-94.9186,4.0,7.012310604,169.7319287,10.51,'11111222,11111222,11111222' 
TABS,ioos:station:wmo:42043:1,2003-08-01T06:09:00Z,28.9818,-94.9186,4.0,6.942946061,171.1348597,9.96,'11111222,11111222,11111222' 
TABS,ioos:station:wmo:42043:1,2003-08-01T06:39:00Z,28.9818,-94.9186,4.0,6.443166923,171.9707339,10.52,'11111222,11111222,11111222' 
TABS,ioos:station:wmo:42043:1,2003-08-01T07:09:00Z,28.9818,-94.9186,4.0,6.10007377,172.6538582,9.36,'11111222,11111222,11111222' 
TABS,ioos:station:wmo:42043:1,2003-08-01T07:39:00Z,28.9818,-94.9186,4.0,5.927098784,177.1957399,8.5,'11111222,11111222,11111222' 
TABS,ioos:station:wmo:42043:1,2003-08-01T08:09:00Z,28.9818,-94.9186,4.0,6.511965909,181.4081149,9.86,'11111222,11111222,11111222' 
TABS,ioos:station:wmo:42043:1,2003-08-01T08:39:00Z,28.9818,-94.9186,4.0,6.071391933,181.2271125,10.45,'11111222,11111222,11111222' 
TABS,ioos:station:wmo:42043:1,2003-08-01T09:09:00Z,28.9818,-94.9186,4.0,6.12249949,185.9063378,9.02,'11111222,11111222,11111222' 
TABS,ioos:station:wmo:42043:1,2003-08-01T09:39:00Z,28.9818,-94.9186,4.0,5.743944638,183.9934284,8.79,'11111222,11111222,11111222' 
TABS,ioos:station:wmo:42043:1,2003-08-01T10:09:00Z,28.9818,-94.9186,4.0,6.12751173,185.4316646,9.35,'11111222,11111222,11111222' 
TABS,ioos:station:wmo:42043:1,2003-08-01T10:39:00Z,28.9818,-94.9186,4.0,4.795424903,192.0365254,7.45,'11111222,11111222,11111222' 
TABS,ioos:station:wmo:42043:1,2003-08-01T11:09:00Z,28.9818,-94.9186,4.0,4.489732731,200.3321643,8.51,'11111222,11111222,11111222' 
TABS,ioos:station:wmo:42043:1,2003-08-01T11:39:00Z,28.9818,-94.9186,4.0,4.680106836,173.4978,7.64,'11111222,11111222,11111222' 
TABS,ioos:station:wmo:42043:1,2003-08-01T12:09:00Z,28.9818,-94.9186,4.0,5.573544653,194.3356124,7.86,'11111222,11111222,11111222' 
TABS,ioos:station:wmo:42043:1,2003-08-01T12:39:00Z,28.9818,-94.9186,4.0,6.2657322,195.0788517,8.28,'11111222,11111222,11111222' 
TABS,ioos:station:wmo:42043:1,2003-08-01T13:09:00Z,28.9818,-94.9186,4.0,4.731109806,199.124469,6.71,'11111222,11111222,11111222' 
TABS,ioos:station:wmo:42043:1,2003-08-01T13:39:00Z,28.9818,-94.9186,4.0,4.054059694,198.2563472,7.15,'11111222,11111222,11111222' 
TABS,ioos:station:wmo:42043:1,2003-08-01T14:09:00Z,28.9818,-94.9186,4.0,3.996648596,187.7653583,6.48,'11111222,11111222,11111222' 
TABS,ioos:station:wmo:42043:1,2003-08-01T14:39:00Z,28.9818,-94.9186,4.0,3.40851874,168.4925067,6.21,'11111222,11111222,11111222' 
TABS,ioos:station:wmo:42043:1,2003-08-01T15:09:00Z,28.9818,-94.9186,4.0,3.591392488,178.4046441,5.56,'11111222,11111222,11111222' 
TABS,ioos:station:wmo:42043:1,2003-08-01T15:39:00Z,28.9818,-94.9186,4.0,3.247799255,190.8257445,5.17,'11111222,11111222,11111222' 
TABS,ioos:station:wmo:42043:1,2003-08-01T16:09:00Z,28.9818,-94.9186,4.0,4.076824745,185.2073511,6.02,'11111222,11111222,11111222' 
TABS,ioos:station:wmo:42043:1,2003-08-01T16:39:00Z,28.9818,-94.9186,4.0,5.037459677,190.0608767,7.73,'11111222,11111222,11111222' 
TABS,ioos:station:wmo:42043:1,2003-08-01T17:09:00Z,28.9818,-94.9186,4.0,4.607927951,187.3565507,8.26,'11111222,11111222,11111222' 
TABS,ioos:station:wmo:42043:1,2003-08-01T17:39:00Z,28.9818,-94.9186,4.0,4.036285421,172.3117807,6.61,'11111222,11111222,11111222' 
TABS,ioos:station:wmo:42043:1,2003-08-01T18:09:00Z,28.9818,-94.9186,4.0,4.652827098,169.8495859,7.8,'11111222,11111222,11111222' 
TABS,ioos:station:wmo:42043:1,2003-08-01T18:39:00Z,28.9818,-94.9186,4.0,5.11353107,174.5014642,8.07,'11111222,11111222,11111222' 
TABS,ioos:station:wmo:42043:1,2003-08-01T19:09:00Z,28.9818,-94.9186,4.0,5.109060579,163.1613649,7.67,'11111222,11111222,11111222' 
TABS,ioos:station:wmo:42043:1,2003-08-01T19:39:00Z,28.9818,-94.9186,4.0,5.487166846,171.7224583,7.81,'11111222,11111222,11111222' 
TABS,ioos:station:wmo:42043:1,2003-08-01T20:09:00Z,28.9818,-94.9186,4.0,5.043966693,177.727766,8.21,'11111222,11111222,11111222' 
TABS,ioos:station:wmo:42043:1,2003-08-01T20:39:00Z,28.9818,-94.9186,4.0,5.672971003,174.8423693,8.59,'11111222,11111222,11111222' 
TABS,ioos:station:wmo:42043:1,2003-08-01T21:09:00Z,28.9818,-94.9186,4.0,6.074248925,172.3370196,9.23,'11111222,11111222,11111222' 
TABS,ioos:station:wmo:42043:1,2003-08-01T21:39:00Z,28.9818,-94.9186,4.0,5.940538696,179.2285986,9.43,'11111222,11111222,11111222' 
TABS,ioos:station:wmo:42043:1,2003-08-01T22:09:00Z,28.9818,-94.9186,4.0,6.648969845,174.6497602,9.71,'11111222,11111222,11111222' 
TABS,ioos:station:wmo:42043:1,2003-08-01T22:39:00Z,28.9818,-94.9186,4.0,6.614967876,173.3156899,9.83,'11111222,11111222,11111222' 
TABS,ioos:station:wmo:42043:1,2003-08-01T23:09:00Z,28.9818,-94.9186,4.0,7.045864035,174.2168076,10.37,'11111222,11111222,11111222' 
TABS,ioos:station:wmo:42043:1,2003-08-01T23:39:00Z,28.9818,-94.9186,4.0,6.703431957,175.2081876,9.7,'11111222,11111222,11111222' 
TABS,ioos:station:wmo:42043:1,2003-08-02T00:09:00Z,28.9818,-94.9186,4.0,6.59334513,178.1750185,9.82,'11111222,11111222,11111222' 
TABS,ioos:station:wmo:42043:1,2003-08-02T00:39:00Z,28.9818,-94.9186,4.0,6.592146843,183.4789475,9.88,'11111222,11111222,11111222' 
TABS,ioos:station:wmo:42043:1,2003-08-02T01:09:00Z,28.9818,-94.9186,4.0,6.036497329,182.6587951,9.01,'11111222,11111222,11111222' 
TABS,ioos:station:wmo:42043:1,2003-08-02T01:39:00Z,28.9818,-94.9186,4.0,6.145445468,188.9873569,9.66,'11111222,11111222,11111222' 
TABS,ioos:station:wmo:42043:1,2003-08-02T02:09:00Z,28.9818,-94.9186,4.0,6.209871174,183.2312128,9.46,'11111222,11111222,11111222' 
TABS,ioos:station:wmo:42043:1,2003-08-02T02:39:00Z,28.9818,-94.9186,4.0,6.706273183,182.4786243,10.06,'11111222,11111222,11111222' 
TABS,ioos:station:wmo:42043:1,2003-08-02T03:09:00Z,28.9818,-94.9186,4.0,7.130841465,186.8461589,11.16,'11111222,11111222,11111222' 
TABS,ioos:station:wmo:42043:1,2003-08-02T03:39:00Z,28.9818,-94.9186,4.0,6.950870449,180.9069723,11.31,'11111222,11111222,11111222' 
TABS,ioos:station:wmo:42043:1,2003-08-02T04:09:00Z,28.9818,-94.9186,4.0,7.155452466,176.2340818,10.59,'11111222,11111222,11111222' 
TABS,ioos:station:wmo:42043:1,2003-08-02T04:39:00Z,28.9818,-94.9186,4.0,6.972660898,176.5469023,10.4,'11111222,11111222,11111222' 
TABS,ioos:station:wmo:42043:1,2003-08-02T05:09:00Z,28.9818,-94.9186,4.0,7.473539991,181.7637763,11.68,'11111222,11111222,11111222' 
TABS,ioos:station:wmo:42043:1,2003-08-02T05:39:00Z,28.9818,-94.9186,4.0,6.999785711,183.0301994,10.26,'11111222,11111222,11111222' 
TABS,ioos:station:wmo:42043:1,2003-08-02T06:09:00Z,28.9818,-94.9186,4.0,7.077697366,177.327813,10.61,'11111222,11111222,11111222' 
TABS,ioos:station:wmo:42043:1,2003-08-02T06:39:00Z,28.9818,-94.9186,4.0,6.536520481,186.059671,10.48,'11111222,11111222,11111222' 
TABS,ioos:station:wmo:42043:1,2003-08-02T07:09:00Z,28.9818,-94.9186,4.0,6.269776711,183.2003094,10.09,'11111222,11111222,11111222' 
TABS,ioos:station:wmo:42043:1,2003-08-02T07:39:00Z,28.9818,-94.9186,4.0,6.09124782,183.4826574,9.51,'11111222,11111222,11111222' 
TABS,ioos:station:wmo:42043:1,2003-08-02T08:09:00Z,28.9818,-94.9186,4.0,6.538845464,182.9807532,10.09,'11111222,11111222,11111222' 
TABS,ioos:station:wmo:42043:1,2003-08-02T08:39:00Z,28.9818,-94.9186,4.0,6.911222757,178.9224166,10.29,'11111222,11111222,11111222' 
TABS,ioos:station:wmo:42043:1,2003-08-02T09:09:00Z,28.9818,-94.9186,4.0,6.179813913,189.2186359,10.08,'11111222,11111222,11111222' 
TABS,ioos:station:wmo:42043:1,2003-08-02T09:39:00Z,28.9818,-94.9186,4.0,5.560035971,189.7335701,9.24,'11111222,11111222,11111222' 
TABS,ioos:station:wmo:42043:1,2003-08-02T10:09:00Z,28.9818,-94.9186,4.0,6.093143688,183.7642365,9.97,'11111222,11111222,11111222' 
TABS,ioos:station:wmo:42043:1,2003-08-02T10:39:00Z,28.9818,-94.9186,4.0,5.822173134,212.8713558,7.77,'11111222,11111222,11111222' 
TABS,ioos:station:wmo:42043:1,2003-08-02T11:09:00Z,28.9818,-94.9186,4.0,6.390148668,211.3021902,8.89,'11111222,11111222,11111222' 
TABS,ioos:station:wmo:42043:1,2003-08-02T11:39:00Z,28.9818,-94.9186,4.0,6.184084411,212.251042,8.79,'11111222,11111222,11111222' 
TABS,ioos:station:wmo:42043:1,2003-08-02T12:09:00Z,28.9818,-94.9186,4.0,6.423776148,190.3130105,10.31,'11111222,11111222,11111222' 
TABS,ioos:station:wmo:42043:1,2003-08-02T12:39:00Z,28.9818,-94.9186,4.0,6.58559033,191.207742,10.79,'11111222,11111222,11111222' 
TABS,ioos:station:wmo:42043:1,2003-08-02T13:09:00Z,28.9818,-94.9186,4.0,6.653495322,194.8927633,9.75,'11111222,11111222,11111222' 
TABS,ioos:station:wmo:42043:1,2003-08-02T13:39:00Z,28.9818,-94.9186,4.0,5.398073731,219.5882487,7.36,'11111222,11111222,11111222' 
TABS,ioos:station:wmo:42043:1,2003-08-02T14:09:00Z,28.9818,-94.9186,4.0,4.543137682,214.144917,6.49,'11111222,11111222,11111222' 
TABS,ioos:station:wmo:42043:1,2003-08-02T14:39:00Z,28.9818,-94.9186,4.0,4.22689011,220.5867077,6.27,'11111222,11111222,11111222' 
TABS,ioos:station:wmo:42043:1,2003-08-02T15:09:00Z,28.9818,-94.9186,4.0,4.787525457,212.8935556,6.78,'11111222,11111222,11111222' 
TABS,ioos:station:wmo:42043:1,2003-08-02T15:39:00Z,28.9818,-94.9186,4.0,5.12800156,216.9147143,7.13,'11111222,11111222,11111222' 
TABS,ioos:station:wmo:42043:1,2003-08-02T16:09:00Z,28.9818,-94.9186,4.0,4.668747155,210.0799026,6.71,'11111222,11111222,11111222' 
TABS,ioos:station:wmo:42043:1,2003-08-02T16:39:00Z,28.9818,-94.9186,4.0,3.956677899,227.560816,6.0,'11111222,11111222,11111222' 
TABS,ioos:station:wmo:42043:1,2003-08-02T17:09:00Z,28.9818,-94.9186,4.0,5.037549007,194.3674467,8.05,'11111222,11111222,11111222' 
TABS,ioos:station:wmo:42043:1,2003-08-02T17:39:00Z,28.9818,-94.9186,4.0,4.405564663,221.687654,6.29,'11111222,11111222,11111222' 
TABS,ioos:station:wmo:42043:1,2003-08-02T18:09:00Z,28.9818,-94.9186,4.0,4.375488544,220.6440197,6.37,'11111222,11111222,11111222' 
TABS,ioos:station:wmo:42043:1,2003-08-02T18:39:00Z,28.9818,-94.9186,4.0,3.95578058,220.8999041,5.46,'11111222,11111222,11111222' 
TABS,ioos:station:wmo:42043:1,2003-08-02T19:09:00Z,28.9818,-94.9186,4.0,3.899705117,206.4994935,5.27,'11111222,11111222,11111222' 
TABS,ioos:station:wmo:42043:1,2003-08-02T19:39:00Z,28.9818,-94.9186,4.0,4.071854614,204.6770159,5.81,'11111222,11111222,11111222' 
TABS,ioos:station:wmo:42043:1,2003-08-02T20:09:00Z,28.9818,-94.9186,4.0,4.341658669,204.2038304,6.16,'11111222,11111222,11111222' 
TABS,ioos:station:wmo:42043:1,2003-08-02T20:39:00Z,28.9818,-94.9186,4.0,4.546042235,200.0694129,6.8,'11111222,11111222,11111222' 
TABS,ioos:station:wmo:42043:1,2003-08-02T21:09:00Z,28.9818,-94.9186,4.0,4.713491275,196.8973474,6.72,'11111222,11111222,11111222' 
TABS,ioos:station:wmo:42043:1,2003-08-02T21:39:00Z,28.9818,-94.9186,4.0,4.758907438,200.4152939,6.44,'11111222,11111222,11111222' 
TABS,ioos:station:wmo:42043:1,2003-08-02T22:09:00Z,28.9818,-94.9186,4.0,4.721239244,195.4788124,6.55,'11111222,11111222,11111222' 
TABS,ioos:station:wmo:42043:1,2003-08-02T22:39:00Z,28.9818,-94.9186,4.0,4.787744772,187.1994273,6.84,'11111222,11111222,11111222' 
TABS,ioos:station:wmo:42043:1,2003-08-02T23:09:00Z,28.9818,-94.9186,4.0,5.217221483,190.4916629,7.62,'11111222,11111222,11111222' 
TABS,ioos:station:wmo:42043:1,2003-08-02T23:39:00Z,28.9818,-94.9186,4.0,4.976364135,189.3678697,6.82,'11111222,11111222,11111222' 
TABS,ioos:station:wmo:42043:1,2003-08-03T00:09:00Z,28.9818,-94.9186,4.0,5.496071324,198.2373184,7.72,'11111222,11111222,11111222' 
TABS,ioos:station:wmo:42043:1,2003-08-03T00:39:00Z,28.9818,-94.9186,4.0,5.602222773,186.1483861,8.12,'11111222,11111222,11111222' 
TABS,ioos:station:wmo:42043:1,2003-08-03T01:09:00Z,28.9818,-94.9186,4.0,5.063170943,192.6640041,7.89,'11111222,11111222,11111222' 
TABS,ioos:station:wmo:42043:1,2003-08-03T01:39:00Z,28.9818,-94.9186,4.0,5.167688071,188.5693323,7.35,'11111222,11111222,11111222' 
TABS,ioos:station:wmo:42043:1,2003-08-03T02:09:00Z,28.9818,-94.9186,4.0,4.76777726,188.9290837,7.06,'11111222,11111222,11111222' 
TABS,ioos:station:wmo:42043:1,2003-08-03T02:39:00Z,28.9818,-94.9186,4.0,4.289533774,188.7158867,6.17,'11111222,11111222,11111222' 
TABS,ioos:station:wmo:42043:1,2003-08-03T03:09:00Z,28.9818,-94.9186,4.0,5.746694702,199.4125475,7.77,'11111222,11111222,11111222' 
TABS,ioos:station:wmo:42043:1,2003-08-03T03:39:00Z,28.9818,-94.9186,4.0,6.442243398,194.7482656,9.32,'11111222,11111222,11111222' 
TABS,ioos:station:wmo:42043:1,2003-08-03T04:09:00Z,28.9818,-94.9186,4.0,6.357082664,193.5555075,8.89,'11111222,11111222,11111222' 
TABS,ioos:station:wmo:42043:1,2003-08-03T04:39:00Z,28.9818,-94.9186,4.0,6.754331943,191.0106646,9.03,'11111222,11111222,11111222' 
TABS,ioos:station:wmo:42043:1,2003-08-03T05:09:00Z,28.9818,-94.9186,4.0,6.817074152,192.7113133,9.77,'11111222,11111222,11111222' 
TABS,ioos:station:wmo:42043:1,2003-08-03T05:39:00Z,28.9818,-94.9186,4.0,6.589218467,196.1247294,9.39,'11111222,11111222,11111222' 
TABS,ioos:station:wmo:42043:1,2003-08-03T06:09:00Z,28.9818,-94.9186,4.0,6.299285674,198.6076929,8.92,'11111222,11111222,11111222' 
TABS,ioos:station:wmo:42043:1,2003-08-03T06:39:00Z,28.9818,-94.9186,4.0,6.752962313,199.6425739,9.57,'11111222,11111222,11111222' 
TABS,ioos:station:wmo:42043:1,2003-08-03T07:09:00Z,28.9818,-94.9186,4.0,6.112748972,198.7018813,8.6,'11111222,11111222,11111222' 
TABS,ioos:station:wmo:42043:1,2003-08-03T07:39:00Z,28.9818,-94.9186,4.0,7.214492359,207.4886699,9.62,'11111222,11111222,11111222' 
TABS,ioos:station:wmo:42043:1,2003-08-03T08:09:00Z,28.9818,-94.9186,4.0,6.568302673,203.7943617,9.78,'11111222,11111222,11111222' 
TABS,ioos:station:wmo:42043:1,2003-08-03T08:39:00Z,28.9818,-94.9186,4.0,6.548289853,203.394059,8.89,'11111222,11111222,11111222' 
TABS,ioos:station:wmo:42043:1,2003-08-03T09:09:00Z,28.9818,-94.9186,4.0,6.939920749,203.7949902,9.43,'11111222,11111222,11111222' 
TABS,ioos:station:wmo:42043:1,2003-08-03T09:39:00Z,28.9818,-94.9186,4.0,6.77156555,203.4987212,9.71,'11111222,11111222,11111222' 
TABS,ioos:station:wmo:42043:1,2003-08-03T10:09:00Z,28.9818,-94.9186,4.0,5.94435867,207.556673,8.7,'11111222,11111222,11111222' 
TABS,ioos:station:wmo:42043:1,2003-08-03T10:39:00Z,28.9818,-94.9186,4.0,6.494836411,207.7093819,9.06,'11111222,11111222,11111222' 
TABS,ioos:station:wmo:42043:1,2003-08-03T11:09:00Z,28.9818,-94.9186,4.0,6.100860595,207.5312369,8.96,'11111222,11111222,11111222' 
TABS,ioos:station:wmo:42043:1,2003-08-03T11:39:00Z,28.9818,-94.9186,4.0,5.041150662,199.2258465,7.34,'11111222,11111222,11111222' 
TABS,ioos:station:wmo:42043:1,2003-08-03T12:09:00Z,28.9818,-94.9186,4.0,5.323326028,210.8531428,7.51,'11111222,11111222,11111222' 
TABS,ioos:station:wmo:42043:1,2003-08-03T12:39:00Z,28.9818,-94.9186,4.0,4.880829847,203.6765847,7.15,'11111222,11111222,11111222' 
TABS,ioos:station:wmo:42043:1,2003-08-03T13:09:00Z,28.9818,-94.9186,4.0,4.636086712,208.6106032,6.75,'11111222,11111222,11111222' 
TABS,ioos:station:wmo:42043:1,2003-08-03T13:39:00Z,28.9818,-94.9186,4.0,4.099134055,204.5019474,6.27,'11111222,11111222,11111222' 
TABS,ioos:station:wmo:42043:1,2003-08-03T14:09:00Z,28.9818,-94.9186,4.0,4.348666462,209.6306272,6.22,'11111222,11111222,11111222' 
TABS,ioos:station:wmo:42043:1,2003-08-03T14:39:00Z,28.9818,-94.9186,4.0,4.612862452,209.6217728,6.43,'11111222,11111222,11111222' 
TABS,ioos:station:wmo:42043:1,2003-08-03T15:09:00Z,28.9818,-94.9186,4.0,4.352769233,220.9012351,6.63,'11111222,11111222,11111222' 
TABS,ioos:station:wmo:42043:1,2003-08-03T15:39:00Z,28.9818,-94.9186,4.0,4.162523273,217.7785264,5.9,'11111222,11111222,11111222' 
TABS,ioos:station:wmo:42043:1,2003-08-03T16:09:00Z,28.9818,-94.9186,4.0,3.905304085,207.9431795,5.9,'11111222,11111222,11111222' 
TABS,ioos:station:wmo:42043:1,2003-08-03T16:39:00Z,28.9818,-94.9186,4.0,4.230520063,214.8922921,5.97,'11111222,11111222,11111222' 
TABS,ioos:station:wmo:42043:1,2003-08-03T17:09:00Z,28.9818,-94.9186,4.0,3.863392292,203.9777014,5.96,'11111222,11111222,11111222' 
TABS,ioos:station:wmo:42043:1,2003-08-03T17:39:00Z,28.9818,-94.9186,4.0,4.3829214,198.3524385,6.34,'11111222,11111222,11111222' 
TABS,ioos:station:wmo:42043:1,2003-08-03T18:09:00Z,28.9818,-94.9186,4.0,4.470011186,201.1112934,6.46,'11111222,11111222,11111222' 
TABS,ioos:station:wmo:42043:1,2003-08-03T18:39:00Z,28.9818,-94.9186,4.0,4.493951491,204.1697664,6.16,'11111222,11111222,11111222' 
TABS,ioos:station:wmo:42043:1,2003-08-03T19:09:00Z,28.9818,-94.9186,4.0,3.805180679,201.1025353,5.61,'11111222,11111222,11111222' 
TABS,ioos:station:wmo:42043:1,2003-08-03T19:39:00Z,28.9818,-94.9186,4.0,3.942714801,204.4200545,5.3,'11111222,11111222,11111222' 
TABS,ioos:station:wmo:42043:1,2003-08-03T20:09:00Z,28.9818,-94.9186,4.0,4.452998989,201.6104249,6.25,'11111222,11111222,11111222' 
TABS,ioos:station:wmo:42043:1,2003-08-03T20:39:00Z,28.9818,-94.9186,4.0,4.354044097,204.5639049,6.15,'11111222,11111222,11111222' 
TABS,ioos:station:wmo:42043:1,2003-08-03T21:09:00Z,28.9818,-94.9186,4.0,4.297080404,201.4301676,6.13,'11111222,11111222,11111222' 
TABS,ioos:station:wmo:42043:1,2003-08-03T21:39:00Z,28.9818,-94.9186,4.0,3.949936708,190.7980538,5.94,'11111222,11111222,11111222' 
TABS,ioos:station:wmo:42043:1,2003-08-03T22:09:00Z,28.9818,-94.9186,4.0,5.590071556,159.9120694,7.93,'11111222,11111222,11111222' 
TABS,ioos:station:wmo:42043:1,2003-08-03T22:39:00Z,28.9818,-94.9186,4.0,4.640387915,179.2593598,7.24,'11111222,11111222,11111222' 
TABS,ioos:station:wmo:42043:1,2003-08-03T23:09:00Z,28.9818,-94.9186,4.0,3.890616918,201.0905378,5.84,'11111222,11111222,11111222' 
TABS,ioos:station:wmo:42043:1,2003-08-03T23:39:00Z,28.9818,-94.9186,4.0,4.760010504,180.1205793,6.91,'11111222,11111222,11111222' 
TABS,ioos:station:wmo:42043:1,2003-08-04T00:09:00Z,28.9818,-94.9186,4.0,4.96025201,180.577768,7.19,'11111222,11111222,11111222' 
TABS,ioos:station:wmo:42043:1,2003-08-04T00:39:00Z,28.9818,-94.9186,4.0,5.853520308,171.5517443,7.67,'11111222,11111222,11111222' 
TABS,ioos:station:wmo:42043:1,2003-08-04T01:09:00Z,28.9818,-94.9186,4.0,5.662199219,168.0750995,7.89,'11111222,11111222,11111222' 
TABS,ioos:station:wmo:42043:1,2003-08-04T01:39:00Z,28.9818,-94.9186,4.0,5.922921576,172.3352678,8.82,'11111222,11111222,11111222' 
TABS,ioos:station:wmo:42043:1,2003-08-04T02:09:00Z,28.9818,-94.9186,4.0,6.296038437,173.0670985,9.86,'11111222,11111222,11111222' 
TABS,ioos:station:wmo:42043:1,2003-08-04T02:39:00Z,28.9818,-94.9186,4.0,5.729153515,165.2363212,8.92,'11111222,11111222,11111222' 
TABS,ioos:station:wmo:42043:1,2003-08-04T03:09:00Z,28.9818,-94.9186,4.0,6.411653453,170.8464224,9.45,'11111222,11111222,11111222' 
TABS,ioos:station:wmo:42043:1,2003-08-04T03:39:00Z,28.9818,-94.9186,4.0,6.644764857,173.345801,9.88,'11111222,11111222,11111222' 
TABS,ioos:station:wmo:42043:1,2003-08-04T04:09:00Z,28.9818,-94.9186,4.0,7.55079466,175.7470094,10.97,'11111222,11111222,11111222' 
TABS,ioos:station:wmo:42043:1,2003-08-04T04:39:00Z,28.9818,-94.9186,4.0,6.86352679,181.8370506,11.16,'11111222,11111222,11111222' 
TABS,ioos:station:wmo:42043:1,2003-08-04T05:09:00Z,28.9818,-94.9186,4.0,6.579855622,176.8638594,9.92,'11111222,11111222,11111222' 
TABS,ioos:station:wmo:42043:1,2003-08-04T05:39:00Z,28.9818,-94.9186,4.0,6.674563656,173.3756432,10.62,'11111222,11111222,11111222' 
TABS,ioos:station:wmo:42043:1,2003-08-04T06:09:00Z,28.9818,-94.9186,4.0,6.227912973,169.8270452,9.19,'11111222,11111222,11111222' 
TABS,ioos:station:wmo:42043:1,2003-08-04T06:39:00Z,28.9818,-94.9186,4.0,5.886153243,171.4020808,9.22,'11111222,11111222,11111222' 
TABS,ioos:station:wmo:42043:1,2003-08-04T07:09:00Z,28.9818,-94.9186,4.0,5.63702936,194.8006464,7.84,'11111222,11111222,11111222' 
TABS,ioos:station:wmo:42043:1,2003-08-04T07:39:00Z,28.9818,-94.9186,4.0,6.587814509,194.7747262,8.92,'11111222,11111222,11111222' 
TABS,ioos:station:wmo:42043:1,2003-08-04T08:09:00Z,28.9818,-94.9186,4.0,6.875267268,172.730499,11.24,'11111222,11111222,11111222' 
TABS,ioos:station:wmo:42043:1,2003-08-04T08:39:00Z,28.9818,-94.9186,4.0,7.147510056,184.011571,10.41,'11111222,11111222,11111222' 
TABS,ioos:station:wmo:42043:1,2003-08-04T09:09:00Z,28.9818,-94.9186,4.0,7.012061038,181.3894189,10.46,'11111222,11111222,11111222' 
TABS,ioos:station:wmo:42043:1,2003-08-04T09:39:00Z,28.9818,-94.9186,4.0,6.097884879,182.9142224,9.14,'11111222,11111222,11111222' 
TABS,ioos:station:wmo:42043:1,2003-08-04T10:09:00Z,28.9818,-94.9186,4.0,5.945569779,175.8528105,8.97,'11111222,11111222,11111222' 
TABS,ioos:station:wmo:42043:1,2003-08-04T10:39:00Z,28.9818,-94.9186,4.0,6.174479735,171.7126498,9.57,'11111222,11111222,11111222' 
TABS,ioos:station:wmo:42043:1,2003-08-04T11:09:00Z,28.9818,-94.9186,4.0,5.620008897,174.076599,8.94,'11111222,11111222,11111222' 
TABS,ioos:station:wmo:42043:1,2003-08-04T11:39:00Z,28.9818,-94.9186,4.0,6.277618975,175.7065165,10.09,'11111222,11111222,11111222' 
TABS,ioos:station:wmo:42043:1,2003-08-04T12:09:00Z,28.9818,-94.9186,4.0,5.17320017,188.2242724,7.51,'11111222,11111222,11111222' 
TABS,ioos:station:wmo:42043:1,2003-08-04T12:39:00Z,28.9818,-94.9186,4.0,6.638079542,173.8602005,10.26,'11111222,11111222,11111222' 
TABS,ioos:station:wmo:42043:1,2003-08-04T13:09:00Z,28.9818,-94.9186,4.0,5.955098656,169.7470213,9.12,'11111222,11111222,11111222' 
TABS,ioos:station:wmo:42043:1,2003-08-04T13:39:00Z,28.9818,-94.9186,4.0,5.891960624,167.8511473,8.39,'11111222,11111222,11111222' 
TABS,ioos:station:wmo:42043:1,2003-08-04T14:09:00Z,28.9818,-94.9186,4.0,5.371489551,174.8733935,8.25,'11111222,11111222,11111222' 
TABS,ioos:station:wmo:42043:1,2003-08-04T14:39:00Z,28.9818,-94.9186,4.0,3.872492737,196.6569009,5.8,'11111222,11111222,11111222' 
TABS,ioos:station:wmo:42043:1,2003-08-04T15:09:00Z,28.9818,-94.9186,4.0,4.531004304,194.8338465,6.99,'11111222,11111222,11111222' 
TABS,ioos:station:wmo:42043:1,2003-08-04T15:39:00Z,28.9818,-94.9186,4.0,4.913206692,175.7982839,7.58,'11111222,11111222,11111222' 
TABS,ioos:station:wmo:42043:1,2003-08-04T16:09:00Z,28.9818,-94.9186,4.0,5.412947441,168.2751259,8.86,'11111222,11111222,11111222' 
TABS,ioos:station:wmo:42043:1,2003-08-04T16:39:00Z,28.9818,-94.9186,4.0,5.353363429,172.702634,7.56,'11111222,11111222,11111222' 
TABS,ioos:station:wmo:42043:1,2003-08-04T17:09:00Z,28.9818,-94.9186,4.0,5.056925944,170.6682969,6.92,'11111222,11111222,11111222' 
TABS,ioos:station:wmo:42043:1,2003-08-04T17:39:00Z,28.9818,-94.9186,4.0,4.608383665,165.4212152,6.9,'11111222,11111222,11111222' 
TABS,ioos:station:wmo:42043:1,2003-08-04T18:09:00Z,28.9818,-94.9186,4.0,4.626024211,156.4276233,7.81,'11111222,11111222,11111222' 
TABS,ioos:station:wmo:42043:1,2003-08-04T18:39:00Z,28.9818,-94.9186,4.0,4.569835883,168.0018062,6.01,'11111222,11111222,11111222' 